TimeAST,TemperatureF,Dew PointF,Humidity,Sea Level PressureIn,VisibilityMPH,Wind Direction,Wind SpeedMPH,Gust SpeedMPH,PrecipitationIn,Events,Conditions,WindDirDegrees,DateUTC
12:00 AM,77.0,71.6,83,29.95,6.2,East,11.5,-,N/A,,Scattered Clouds,80,2013-02-25 04:00:00
1:00 AM,77.0,71.6,83,29.92,6.2,East,11.5,-,N/A,,Partly Cloudy,100,2013-02-25 05:00:00
2:00 AM,78,72,76,29.91,14,East,11.5,,,,Widespread Dust,90,2013-02-25 06:00:00
2:00 AM,78.8,71.6,78,29.92,6.2,East,11.5,-,N/A,,Scattered Clouds,90,2013-02-25 06:00:00
3:00 AM,78.8,69.8,74,29.89,6.2,East,16.1,-,N/A,,Partly Cloudy,100,2013-02-25 07:00:00
4:00 AM,77.0,69.8,78,29.89,6.2,ESE,12.7,-,N/A,,Partly Cloudy,110,2013-02-25 08:00:00
5:00 AM,78,71,73,29.91,14,ESE,17.3,,,,Widespread Dust,110,2013-02-25 09:00:00
5:00 AM,78.8,71.6,78,29.89,6.2,ESE,17.3,-,N/A,,Partly Cloudy,110,2013-02-25 09:00:00
6:00 AM,77.0,71.6,83,29.92,6.2,ESE,13.8,-,N/A,,Partly Cloudy,110,2013-02-25 10:00:00
7:00 AM,77.0,71.6,83,29.95,6.2,East,10.4,-,N/A,,Partly Cloudy,80,2013-02-25 11:00:00
8:00 AM,81,70,63,29.97,8,East,17.3,,,,Widespread Dust,100,2013-02-25 12:00:00
8:00 AM,80.6,69.8,70,29.95,6.2,East,17.3,-,N/A,,Partly Cloudy,100,2013-02-25 12:00:00
9:00 AM,82.4,71.6,70,29.98,6.2,ESE,20.7,-,N/A,,Partly Cloudy,110,2013-02-25 13:00:00
10:00 AM,82.4,71.6,70,29.98,6.2,ESE,17.3,-,N/A,,Partly Cloudy,110,2013-02-25 14:00:00
11:00 AM,84,,,29.97,15,SE,17.3,,,,Widespread Dust,130,2013-02-25 15:00:00
11:00 AM,84.2,71.6,66,29.95,6.2,SE,17.3,-,N/A,,Partly Cloudy,130,2013-02-25 15:00:00
12:00 PM,84.2,71.6,66,29.95,6.2,ESE,20.7,-,N/A,,Partly Cloudy,120,2013-02-25 16:00:00
1:00 PM,84.2,71.6,66,29.92,6.2,ESE,23.0,-,N/A,,Partly Cloudy,120,2013-02-25 17:00:00
2:00 PM,83,72,62,29.89,16,SE,23.0,,,,Scattered Clouds,130,2013-02-25 18:00:00
2:00 PM,84.2,71.6,66,29.89,6.2,SE,23.0,-,N/A,,Partly Cloudy,130,2013-02-25 18:00:00
3:00 PM,82.4,71.6,70,29.86,6.2,SE,21.9,-,N/A,,Scattered Clouds,130,2013-02-25 19:00:00
4:00 PM,82.4,71.6,70,29.86,6.2,SE,20.7,-,N/A,,Scattered Clouds,130,2013-02-25 20:00:00
5:00 PM,82,71,62,29.87,14,ESE,17.3,,,,Scattered Clouds,120,2013-02-25 21:00:00
5:00 PM,82.4,71.6,70,29.86,6.2,ESE,17.3,-,N/A,,Partly Cloudy,120,2013-02-25 21:00:00
6:00 PM,80.6,73.4,79,29.86,6.2,ESE,17.3,-,N/A,,Scattered Clouds,110,2013-02-25 22:00:00
7:00 PM,78.8,71.6,78,29.86,6.2,ESE,11.5,-,N/A,,Partly Cloudy,110,2013-02-25 23:00:00
8:00 PM,78,71,73,29.91,14,East,12.7,,,,Widespread Dust,100,2013-02-26 00:00:00
8:00 PM,78.8,71.6,78,29.89,6.2,East,12.7,-,N/A,,Partly Cloudy,100,2013-02-26 00:00:00
9:00 PM,77.0,71.6,83,29.92,6.2,East,11.5,-,N/A,,Partly Cloudy,90,2013-02-26 01:00:00
10:00 PM,78.8,71.6,78,29.95,6.2,East,12.7,-,N/A,,Partly Cloudy,90,2013-02-26 02:00:00
11:00 PM,78,73,80,29.96,14,East,13.8,,,,Widespread Dust,100,2013-02-26 03:00:00
11:00 PM,78.8,73.4,83,29.95,6.2,East,13.8,-,N/A,,Partly Cloudy,100,2013-02-26 03:00:00